Flag for U.S.A. Weather past 2 weeks in Pensacola, Florida, U.S.A.

Now
77 °F

Clear.


Feels Like: 79 °F
Forecast: 74 / 84 °F
Wind: 6 mph from Southeast

Location: Pensacola Regional Airport

Current Time: May 23, 2015 at 11:07:12 PM

Latest Report: May 23, 2015 at 9:53 PM


Visibility: 10 mi

Pressure: 30.18 "Hg

Humidity: 82%

Dew point: 71 °F

Location of PensacolaLocation

Historic Weather in Pensacola — Graph

°F

Pensacola temperature yesterday

Maximum temperature yesterday: 84 °F (at 4:53 PM)
Minimum temperature yesterday: 63 °F (at 6:53 AM)
Average temperature yesterday: 74 °F

Past Weeks' High & Low Weather Summary

 TemperatureHumidityPressure
High88 °F (May 13, 2:53 PM)100% (May 18, 3:53 AM)30.26 "Hg (May 18, 3:53 AM)
Low63 °F (May 22, 6:53 AM)36% (May 9, 11:53 AM)29.94 "Hg (May 20, 4:53 PM)
Average77 °F75%30.11 "Hg
* Reported May 8 9:53 PM — May 23 9:53 PM, Pensacola, Weather by CustomWeather, © 2015

Note: Actual official high and low records may vary slightly from our data, if they occured in-between our weather recording intervals... More about our weather records

Advertising

Pensacola weather history for previous 24 hours

 ConditionsComfort  
Time TempWeatherWind HumidityBarometerVisibility
9:53 PM
Sat, May 23
77 °FClear.6 mph82%30.18 "Hg10 mi
8:53 PM77 °FClear.6 mph85%30.17 "Hg10 mi
7:53 PM77 °FClear.7 mph79%30.16 "Hg10 mi
6:53 PM80 °FSunny.10 mph64%30.16 "Hg10 mi
5:53 PM81 °FSunny.8 mph65%30.16 "Hg10 mi
4:53 PM81 °FSunny.14 mph62%30.18 "Hg10 mi
3:53 PM83 °FSunny.13 mph63%30.20 "Hg10 mi
2:53 PM83 °FPassing clouds.13 mph68%30.22 "Hg10 mi
1:53 PM83 °FSunny.14 mph68%30.24 "Hg10 mi
12:53 PM82 °FSunny.15 mph67%30.25 "Hg10 mi
11:53 AM82 °FSunny.15 mph60%30.26 "Hg10 mi
10:53 AM82 °FSunny.9 mph43%30.26 "Hg10 mi
9:53 AM79 °FSunny.6 mph50%30.25 "Hg10 mi
8:53 AM76 °FSunny.6 mph56%30.26 "Hg10 mi
7:53 AM73 °FSunny.7 mph59%30.24 "Hg10 mi
6:53 AM69 °FSunny.7 mph66%30.22 "Hg10 mi
5:53 AM67 °FSunny.5 mph73%30.20 "Hg10 mi
4:53 AM68 °FClear.3 mph70%30.19 "Hg10 mi
3:53 AM69 °FClear.3 mph66%30.18 "Hg10 mi
2:53 AM69 °FPassing clouds.5 mph63%30.17 "Hg10 mi
1:53 AM70 °FClear.6 mph64%30.17 "Hg10 mi
12:53 AM72 °FClear.6 mph55%30.18 "Hg10 mi
11:53 PM
Fri, May 22
73 °FClear.5 mph55%30.19 "Hg10 mi
Weather by CustomWeather, © 2015

See weather overviewHow to use our weather pages